When you browse on this site, cookies collect data to enhance your experience and personalize the content and advertising you see.
Visit our Privacy Policy to learn more. By continuing to use the site, you agree to this use of cookies and data.
  • In Lithuania
  • List of Countries
  • For 7 days
  • Water Temperature
  • Weather Map
  • Weather Widgets
  • user-avatar
    Login

    Hourly Weather Red Deer

    Today, 7 June, Sunday

    Time Temperature Precipitation Wind Pressure Humidity
    00:00 +10°C° 0.9 mm 7 mps 670 mmHg 96%
    01:00 +10°C° 0.9 mm 8 mps 669 mmHg 96%
    02:00 +10°C° 3.4 mm 8 mps 669 mmHg 96%
    03:00 +10°C° 3.4 mm 8 mps 668 mmHg 96%
    04:00 +8°C° 3.4 mm 9 mps 668 mmHg 95%
    05:00 +8°C° 3.7 mm 9 mps 667 mmHg 96%
    06:00 +8°C° 3.7 mm 9 mps 667 mmHg 96%
    07:00 +8°C° 3.7 mm 9 mps 666 mmHg 96%
    08:00 +7°C° 3.2 mm 9 mps 666 mmHg 95%
    09:00 +7°C° 3.2 mm 9 mps 666 mmHg 95%
    10:00 +7°C° 3.2 mm 9 mps 666 mmHg 95%
    11:00 +7°C° 2.9 mm 9 mps 666 mmHg 94%
    12:00 +6°C° 2.9 mm 9 mps 666 mmHg 94%
    13:00 +6°C° 2.9 mm 9 mps 666 mmHg 93%
    14:00 +5°C° 2.9 mm 9 mps 667 mmHg 93%
    15:00 +5°C° 2.9 mm 9 mps 667 mmHg 94%
    16:00 +5°C° 2.9 mm 9 mps 667 mmHg 94%
    17:00 +3°C° 2.1 mm 9 mps 668 mmHg 94%
    18:00 +4°C° 2.1 mm 8 mps 668 mmHg 95%
    19:00 +4°C° 2.1 mm 8 mps 668 mmHg 95%
    20:00 +2°C° 1.5 mm 8 mps 668 mmHg 95%
    21:00 +2°C° 1.5 mm 8 mps 668 mmHg 95%
    22:00 +2°C° 1.5 mm 8 mps 668 mmHg 95%
    23:00 +1°C° 0.9 mm 8 mps 669 mmHg 95%

    Tomorrow, 8 June, Monday

    Time Temperature Precipitation Wind Pressure Humidity
    00:00 +1°C° 0.9 mm 8 mps 669 mmHg 95%
    01:00 +1°C° 0.9 mm 8 mps 669 mmHg 95%
    02:00 +1°C° 0.3 mm 8 mps 669 mmHg 95%
    03:00 +1°C° 0.3 mm 8 mps 670 mmHg 94%
    04:00 0°C° 0.3 mm 8 mps 670 mmHg 93%
    05:00 +1°C° 0.1 mm 8 mps 670 mmHg 92%
    06:00 +1°C° 0.1 mm 8 mps 671 mmHg 92%
    07:00 +1°C° 0.1 mm 8 mps 671 mmHg 91%
    08:00 +2°C° 0 mm 8 mps 672 mmHg 87%
    09:00 +4°C° 0 mm 8 mps 673 mmHg 84%
    10:00 +5°C° 0 mm 8 mps 673 mmHg 80%
    11:00 +6°C° 0 mm 8 mps 674 mmHg 76%
    12:00 +7°C° 0 mm 8 mps 674 mmHg 72%
    13:00 +9°C° 0 mm 8 mps 675 mmHg 68%
    14:00 +9°C° 0 mm 8 mps 675 mmHg 70%
    15:00 +9°C° 0 mm 7 mps 675 mmHg 72%
    16:00 +8°C° 0 mm 7 mps 675 mmHg 74%
    17:00 +8°C° 0.1 mm 6 mps 676 mmHg 77%
    18:00 +7°C° 0.1 mm 5 mps 676 mmHg 79%
    19:00 +6°C° 0.1 mm 4 mps 676 mmHg 82%
    20:00 +5°C° 0 mm 4 mps 677 mmHg 83%
    21:00 +5°C° 0 mm 4 mps 677 mmHg 84%
    22:00 +4°C° 0 mm 4 mps 677 mmHg 86%
    23:00 +3°C° 0 mm 5 mps 677 mmHg 83%

    Day after tomorrow, 9 June, Tuesday

    Time Temperature Precipitation Wind Pressure Humidity
    00:00 +4°C° 0 mm 6 mps 678 mmHg 81%
    01:00 +4°C° 0 mm 7 mps 678 mmHg 78%
    02:00 +4°C° 0 mm 6 mps 678 mmHg 80%
    03:00 +3°C° 0 mm 6 mps 678 mmHg 82%
    04:00 +3°C° 0 mm 5 mps 678 mmHg 84%
    05:00 +4°C° 0 mm 6 mps 678 mmHg 80%
    06:00 +5°C° 0 mm 7 mps 679 mmHg 75%
    07:00 +7°C° 0 mm 8 mps 679 mmHg 71%
    08:00 +9°C° 0 mm 8 mps 679 mmHg 70%
    09:00 +10°C° 0 mm 8 mps 680 mmHg 68%
    10:00 +11°C° 0 mm 8 mps 680 mmHg 67%
    11:00 +11°C° 0.2 mm 7 mps 680 mmHg 66%
    12:00 +12°C° 0.2 mm 7 mps 680 mmHg 65%
    13:00 +14°C° 0.2 mm 7 mps 680 mmHg 64%
    14:00 +14°C° 0.1 mm 7 mps 680 mmHg 67%
    15:00 +13°C° 0.1 mm 6 mps 680 mmHg 69%
    16:00 +13°C° 0.1 mm 5 mps 680 mmHg 71%
    17:00 +12°C° 0 mm 5 mps 680 mmHg 76%
    18:00 +10°C° 0 mm 4 mps 680 mmHg 82%
    19:00 +9°C° 0 mm 3 mps 680 mmHg 88%
    20:00 +8°C° 0 mm 3 mps 681 mmHg 90%
    21:00 +7°C° 0 mm 2 mps 681 mmHg 92%
    22:00 +6°C° 0 mm 2 mps 681 mmHg 94%
    23:00 +6°C° 0 mm 2 mps 682 mmHg 94%

    10 June, Wednesday

    Time Temperature Precipitation Wind Pressure Humidity
    00:00 +6°C° 0 mm 2 mps 682 mmHg 94%
    01:00 +5°C° 0 mm 2 mps 682 mmHg 94%
    02:00 +4°C° 0 mm 3 mps 683 mmHg 93%
    03:00 +4°C° 0 mm 3 mps 683 mmHg 93%
    04:00 +4°C° 0 mm 4 mps 684 mmHg 92%
    05:00 +4°C° 0 mm 4 mps 684 mmHg 88%
    06:00 +5°C° 0 mm 4 mps 685 mmHg 85%
    07:00 +5°C° 0 mm 4 mps 685 mmHg 81%
    08:00 +6°C° 0 mm 4 mps 686 mmHg 77%
    09:00 +7°C° 0 mm 4 mps 687 mmHg 73%
    10:00 +8°C° 0 mm 5 mps 687 mmHg 69%
    11:00 +10°C° 0 mm 4 mps 687 mmHg 66%
    12:00 +11°C° 0 mm 4 mps 688 mmHg 62%
    13:00 +12°C° 0 mm 3 mps 688 mmHg 58%
    14:00 +12°C° 0 mm 3 mps 688 mmHg 58%
    15:00 +12°C° 0 mm 3 mps 688 mmHg 58%
    16:00 +12°C° 0 mm 3 mps 688 mmHg 57%
    17:00 +11°C° 0 mm 3 mps 688 mmHg 63%
    18:00 +10°C° 0 mm 3 mps 688 mmHg 70%
    19:00 +9°C° 0 mm 2 mps 688 mmHg 76%
    20:00 +8°C° 0 mm 3 mps 688 mmHg 78%
    21:00 +5°C° 0 mm 3 mps 688 mmHg 81%
    22:00 +4°C° 0 mm 3 mps 688 mmHg 84%
    23:00 +3°C° 0 mm 3 mps 688 mmHg 84%

    11 June, Thursday

    Time Temperature Precipitation Wind Pressure Humidity
    00:00 +3°C° 0 mm 4 mps 688 mmHg 85%
    01:00 +3°C° 0 mm 4 mps 688 mmHg 86%
    02:00 +3°C° 0 mm 4 mps 688 mmHg 86%
    03:00 +1°C° 0 mm 4 mps 688 mmHg 87%
    04:00 +1°C° 0 mm 4 mps 688 mmHg 88%
    05:00 +3°C° 0 mm 5 mps 688 mmHg 81%
    06:00 +5°C° 0 mm 6 mps 689 mmHg 74%
    07:00 +8°C° 0 mm 7 mps 689 mmHg 67%
    08:00 +9°C° 0 mm 7 mps 689 mmHg 66%
    09:00 +10°C° 0 mm 7 mps 689 mmHg 64%
    10:00 +12°C° 0 mm 7 mps 689 mmHg 63%
    11:00 +12°C° 0 mm 7 mps 689 mmHg 62%
    12:00 +14°C° 0 mm 7 mps 689 mmHg 61%
    13:00 +15°C° 0 mm 7 mps 689 mmHg 61%
    14:00 +15°C° 0 mm 7 mps 689 mmHg 62%
    15:00 +15°C° 0 mm 7 mps 688 mmHg 63%
    16:00 +15°C° 0 mm 7 mps 688 mmHg 63%
    17:00 +13°C° 0 mm 6 mps 688 mmHg 68%
    18:00 +12°C° 0 mm 5 mps 687 mmHg 72%
    19:00 +10°C° 0 mm 5 mps 687 mmHg 77%
    20:00 +9°C° 0 mm 5 mps 687 mmHg 77%
    21:00 +8°C° 0 mm 5 mps 687 mmHg 77%
    22:00 +7°C° 0 mm 6 mps 687 mmHg 77%
    23:00 +7°C° 0 mm 6 mps 686 mmHg 78%

    12 June, Friday

    Time Temperature Precipitation Wind Pressure Humidity
    00:00 +5°C° 0 mm 6 mps 686 mmHg 80%
    01:00 +5°C° 0 mm 6 mps 686 mmHg 81%
    02:00 +5°C° 0 mm 6 mps 685 mmHg 82%
    03:00 +5°C° 0 mm 6 mps 685 mmHg 83%
    04:00 +5°C° 0 mm 6 mps 685 mmHg 84%
    05:00 +6°C° 0 mm 7 mps 685 mmHg 81%
    06:00 +9°C° 0 mm 7 mps 684 mmHg 78%
    07:00 +10°C° 0 mm 8 mps 684 mmHg 75%
    08:00 +11°C° 0 mm 8 mps 684 mmHg 74%
    09:00 +13°C° 0 mm 8 mps 684 mmHg 72%
    10:00 +15°C° 0 mm 8 mps 684 mmHg 71%
    11:00 +17°C° 0 mm 8 mps 684 mmHg 70%
    12:00 +18°C° 0 mm 8 mps 683 mmHg 69%
    13:00 +20°C° 0 mm 8 mps 683 mmHg 68%
    14:00 +21°C° 0 mm 7 mps 683 mmHg 69%
    15:00 +21°C° 0 mm 7 mps 682 mmHg 69%
    16:00 +21°C° 0 mm 7 mps 682 mmHg 70%
    17:00 +20°C° 0 mm 6 mps 682 mmHg 74%
    18:00 +19°C° 0 mm 5 mps 681 mmHg 79%
    19:00 +18°C° 0 mm 4 mps 681 mmHg 83%
    20:00 +17°C° 0.1 mm 4 mps 681 mmHg 84%
    21:00 +15°C° 0.1 mm 4 mps 680 mmHg 85%
    22:00 +14°C° 0.1 mm 5 mps 680 mmHg 85%
    23:00 +14°C° 0 mm 5 mps 680 mmHg 86%
    Show more